Bar Harbor, ME

3:59 AM EDT on August 26, 2019 (GMT -0400)
Hancock County-Bar Harbor

Weather History for KBHB - July, 2019

Change the Weather History Date:

Sunday, July 21, 2019

  Actual Average Record
Temperature  
Mean Temperature 78 °F -  
Max Temperature 87 °F 79 °F 96 °F (1977)
Min Temperature 66 °F 58 °F 48 °F (1999)
Cooling Degree Days 13    
Growing Degree Days 28 (Base 50)    
Moisture  
Dew Point 70 °F    
Average Humidity 79    
Maximum Humidity 96    
Minimum Humidity 64    
Precipitation  
Precipitation 0.00 in - - ()
Sea Level Pressure  
Sea Level Pressure 29.66 in    
Wind  
Wind Speed 5 mph (West)    
Max Wind Speed 14 mph    
Max Gust Speed 22 mph    
Visibility 10 miles    
Events      
Averages and records for this station are not official NWS values.
T = Trace of Precipitation, MM = Missing Value Source: NWS Daily Summary

Daily Weather History Graph

Daily Weather History Graph

Search for Another Location

Airport or City:

Astronomy

Jul. 21, 2019 Rise Set
Actual Time 5:08 AM EDT 8:10 PM EDT
Civil Twilight 4:33 AM EDT 8:45 PM EDT
Nautical Twilight 3:49 AM EDT 9:29 PM EDT
Astronomical Twilight 2:55 AM EDT 10:22 PM EDT
Moon 10:54 PM EDT (7/21) 9:33 AM EDT (7/21)
Length of Visible Light 16h 11m
Length of Day
15h 02m
Waning Gibbous, 80% of the Moon is Illuminated
Jul 21
Waning Gibbous
Jul 24
Last Quarter
Jul 31
New
Aug 7
First Quarter
Aug 15
Full

Hourly Weather History & Observations

Time (EDT) Temp. Heat Index Dew Point Humidity Pressure Visibility Wind Dir Wind Speed Gust Speed Precip Events Conditions
12:56 AM 71.1 °F - 66.9 °F 87% 29.67 in 10.0 mi SW 3.5 mph - N/A   Clear
1:56 AM 71.1 °F - 68.0 °F 90% 29.65 in 10.0 mi SSW 5.8 mph - N/A   Mostly Cloudy
2:56 AM 70.0 °F - 68.0 °F 93% 29.64 in 10.0 mi WSW 3.5 mph - N/A   Clear
3:56 AM 69.1 °F - 66.9 °F 93% 29.64 in 9.0 mi Calm Calm - N/A   Clear
4:56 AM 69.1 °F - 66.9 °F 93% 29.64 in 8.0 mi Calm Calm - N/A   Clear
5:56 AM 69.1 °F - 68.0 °F 96% 29.64 in 8.0 mi SSE 4.6 mph - N/A   Clear
6:56 AM 73.0 °F - 69.1 °F 87% 29.64 in 10.0 mi Calm Calm - N/A   Clear
7:56 AM 75.0 °F - 70.0 °F 84% 29.64 in 10.0 mi South 5.8 mph - N/A   Clear
8:56 AM 79.0 °F - 72.0 °F 79% 29.62 in 10.0 mi South 4.6 mph - N/A   Partly Cloudy
9:14 AM 80.6 °F 85.4 °F 73.4 °F 79% 29.62 in 10.0 mi South 4.6 mph - N/A   Partly Cloudy
9:56 AM 82.0 °F 87.4 °F 73.0 °F 74% 29.61 in 10.0 mi South 8.1 mph - N/A   Clear
10:56 AM 86.0 °F 96.0 °F 75.9 °F 72% 29.59 in 10.0 mi South 9.2 mph - N/A   Clear
11:56 AM 87.1 °F 96.3 °F 75.0 °F 67% 29.57 in 10.0 mi SSW 10.4 mph - N/A   Clear
12:56 PM 87.1 °F 96.3 °F 75.0 °F 67% 29.57 in 10.0 mi WSW 8.1 mph 17.3 mph N/A   Mostly Cloudy
1:56 PM 81.0 °F 84.9 °F 71.1 °F 72% 29.60 in 10.0 mi NNW 13.8 mph 21.9 mph N/A   Mostly Cloudy
2:56 PM 84.9 °F 91.4 °F 73.0 °F 67% 29.62 in 10.0 mi North 11.5 mph 19.6 mph 0.00 in   Clear
3:34 PM 80.6 °F 85.4 °F 73.4 °F 79% 29.63 in 10.0 mi North 11.5 mph 18.4 mph N/A   Mostly Cloudy
3:56 PM 81.0 °F 85.2 °F 72.0 °F 74% 29.65 in 10.0 mi North 10.4 mph 18.4 mph N/A   Scattered Clouds
4:32 PM 80.6 °F 84.6 °F 71.6 °F 74% 29.66 in 10.0 mi NNW 11.5 mph 17.3 mph N/A   Partly Cloudy
4:56 PM 80.1 °F 82.9 °F 69.1 °F 69% 29.67 in 10.0 mi NNW 13.8 mph 18.4 mph N/A   Clear
5:35 PM 80.6 °F 83.2 °F 68.0 °F 65% 29.68 in 10.0 mi NNW 10.4 mph - N/A   Partly Cloudy
5:56 PM 80.1 °F 82.3 °F 66.9 °F 64% 29.68 in 10.0 mi North 8.1 mph - N/A   Clear
6:22 PM 80.6 °F 83.2 °F 68.0 °F 65% 29.69 in 10.0 mi North 8.1 mph - N/A   Partly Cloudy
6:56 PM 78.1 °F - 68.0 °F 71% 29.71 in 10.0 mi North 8.1 mph - N/A   Clear
7:56 PM 75.0 °F - 66.9 °F 76% 29.73 in 10.0 mi Calm Calm - N/A   Clear
8:56 PM 72.0 °F - 66.0 °F 81% 29.76 in 10.0 mi Calm Calm - N/A   Clear
9:56 PM 71.1 °F - 66.0 °F 84% 29.77 in 10.0 mi Calm Calm - N/A   Scattered Clouds
10:56 PM 70.0 °F - 66.0 °F 87% 29.77 in 10.0 mi WSW 3.5 mph - N/A   Mostly Cloudy
11:56 PM 66.9 °F - 64.9 °F 93% 29.77 in 10.0 mi North 3.5 mph - N/A   Clear